リン彗星

C/1999 N2 ( Lynn )

English version
Home page
Updated on February 7, 2000

---------------------------------------------------------------------

・ プロフィール

発見日 1999年 7月13日
発見光度 8.0等
発見者 D. W. Lynn (near Melbourne)

・ 写真集

・ 軌道要素

   The following improved orbital elements by Kenji Muraoka, are
  from 176 observations  1999 July 14 to Sept. 11, perturbations
  by 9 Planets, Moon and 5 minor planets were taken into account.
   The mean residual is +/- 0.73 arc seconds.

      Epoch  =  1999 Aug. 10.0  TT       JDT = 2451400.5
          T  =  1999 July 23.05050       +/- 0.00011 (m.e.) TT
       Peri. =  357.83403                +/- 0.00019
       Node  =  254.67569                +/- 0.00021   (2000.0)
       Incl. =  111.65609                +/- 0.00018
          q  =    0.7612843              +/- 0.0000002 AU
          e  =    0.9974591              +/- 0.0000202
        1/a  =   +0.0033376              +/- 0.0000265 1/AU
        ( P  =   5186 years )
  orig. 1/a  =   +0.003443
  fut.  1/a  =   +0.004352

・ 星図

・ 光度変化

        m1 = 7.5 + 5 logΔ -  5   log r  [  ,30]  (              〜1999年 8月22日)
        m1 = 7.8 + 5 logΔ + 15.0 log r  [30,  ]  (1999年 8月22日〜              )

        ※ 灰色の曲線は、m1 = 7.8 + 5 logΔ + 15.0 log r の光度曲線です。

---------------------------------------------------------------------

軌道要素は村岡健治氏の計算によるものです。
星図は StellaNavigator Ver.2.0 for Windows (アストロアーツ 編著 / アスキー出版局刊) で作成したものです。
光度グラフはComet for Windowsで作成したものです。

---------------------------------------------------------------------

Copyright(C) Seiichi Yoshida (comet@aerith.net). All rights reserved.